When you browse on this site, cookies collect data to enhance your experience and personalize the content and advertising you see.
Visit our Privacy Policy to learn more. By continuing to use the site, you agree to this use of cookies and data.
  • In Netherlands
  • List of Countries
  • For 7 days
  • Water Temperature
  • Satellite Maps
  • Weather Map
  • Weather Widgets
  • user-avatar
    Login

    Hourly Weather Shkoder

    Today, 20 March, Wednesday

    Time Temperature Precipitation Wind Pressure Humidity
    00:00 +10°C° 0 mm 2 mps 743 mmHg 74%
    01:00 +10°C° 0 mm 2 mps 743 mmHg 79%
    02:00 +10°C° 0 mm 2 mps 743 mmHg 78%
    03:00 +10°C° 0 mm 3 mps 743 mmHg 77%
    04:00 +9°C° 0 mm 3 mps 744 mmHg 76%
    05:00 +9°C° 0 mm 3 mps 744 mmHg 74%
    06:00 +10°C° 0 mm 4 mps 744 mmHg 73%
    07:00 +10°C° 0 mm 4 mps 744 mmHg 71%
    08:00 +11°C° 0 mm 4 mps 744 mmHg 65%
    09:00 +13°C° 0 mm 4 mps 744 mmHg 59%
    10:00 +15°C° 0 mm 4 mps 744 mmHg 53%
    11:00 +17°C° 0 mm 4 mps 744 mmHg 51%
    12:00 +17°C° 0 mm 4 mps 744 mmHg 49%
    13:00 +18°C° 0 mm 4 mps 744 mmHg 47%
    14:00 +18°C° 0 mm 4 mps 744 mmHg 48%
    15:00 +18°C° 0 mm 4 mps 744 mmHg 48%
    16:00 +18°C° 0 mm 4 mps 744 mmHg 49%
    17:00 +15°C° 0 mm 4 mps 745 mmHg 52%
    18:00 +14°C° 0 mm 5 mps 745 mmHg 55%
    19:00 +13°C° 0 mm 5 mps 746 mmHg 59%
    20:00 +12°C° 0 mm 5 mps 746 mmHg 59%
    21:00 +12°C° 0 mm 5 mps 746 mmHg 60%
    22:00 +10°C° 0 mm 5 mps 747 mmHg 61%
    23:00 +10°C° 0 mm 5 mps 747 mmHg 62%

    Tomorrow, 21 March, Thursday

    Time Temperature Precipitation Wind Pressure Humidity
    00:00 +9°C° 0 mm 5 mps 747 mmHg 63%
    01:00 +9°C° 0 mm 5 mps 747 mmHg 64%
    02:00 +9°C° 0 mm 5 mps 747 mmHg 64%
    03:00 +8°C° 0 mm 4 mps 747 mmHg 64%
    04:00 +8°C° 0 mm 4 mps 747 mmHg 65%
    05:00 +8°C° 0 mm 4 mps 748 mmHg 64%
    06:00 +8°C° 0 mm 4 mps 748 mmHg 63%
    07:00 +8°C° 0 mm 4 mps 748 mmHg 62%
    08:00 +10°C° 0 mm 5 mps 748 mmHg 58%
    09:00 +13°C° 0 mm 5 mps 748 mmHg 53%
    10:00 +14°C° 0 mm 5 mps 748 mmHg 48%
    11:00 +15°C° 0 mm 5 mps 748 mmHg 46%
    12:00 +16°C° 0 mm 5 mps 747 mmHg 45%
    13:00 +18°C° 0 mm 4 mps 747 mmHg 43%
    14:00 +18°C° 0 mm 4 mps 747 mmHg 44%
    15:00 +18°C° 0 mm 4 mps 747 mmHg 45%
    16:00 +17°C° 0 mm 4 mps 746 mmHg 45%
    17:00 +15°C° 0 mm 4 mps 747 mmHg 50%
    18:00 +13°C° 0 mm 4 mps 747 mmHg 55%
    19:00 +12°C° 0 mm 4 mps 747 mmHg 59%
    20:00 +11°C° 0 mm 4 mps 748 mmHg 61%
    21:00 +11°C° 0 mm 4 mps 748 mmHg 62%
    22:00 +10°C° 0 mm 4 mps 748 mmHg 64%
    23:00 +10°C° 0 mm 4 mps 748 mmHg 65%

    Day after tomorrow, 22 March, Friday

    Time Temperature Precipitation Wind Pressure Humidity
    00:00 +8°C° 0 mm 4 mps 749 mmHg 65%
    01:00 +8°C° 0 mm 4 mps 749 mmHg 66%
    02:00 +8°C° 0 mm 4 mps 749 mmHg 66%
    03:00 +8°C° 0 mm 4 mps 749 mmHg 67%
    04:00 +8°C° 0 mm 3 mps 748 mmHg 68%
    05:00 +9°C° 0 mm 3 mps 748 mmHg 67%
    06:00 +9°C° 0 mm 3 mps 749 mmHg 67%
    07:00 +10°C° 0 mm 3 mps 749 mmHg 66%
    08:00 +12°C° 0 mm 3 mps 748 mmHg 59%
    09:00 +14°C° 0 mm 3 mps 748 mmHg 53%
    10:00 +16°C° 0 mm 3 mps 748 mmHg 47%
    11:00 +17°C° 0 mm 3 mps 748 mmHg 44%
    12:00 +18°C° 0 mm 3 mps 747 mmHg 42%
    13:00 +19°C° 0 mm 2 mps 747 mmHg 39%
    14:00 +19°C° 0 mm 2 mps 746 mmHg 40%
    15:00 +19°C° 0 mm 2 mps 746 mmHg 41%
    16:00 +19°C° 0 mm 2 mps 746 mmHg 41%
    17:00 +17°C° 0 mm 2 mps 746 mmHg 46%
    18:00 +16°C° 0 mm 2 mps 746 mmHg 52%
    19:00 +14°C° 0 mm 2 mps 746 mmHg 57%
    20:00 +12°C° 0 mm 3 mps 747 mmHg 58%
    21:00 +12°C° 0 mm 3 mps 747 mmHg 59%
    22:00 +11°C° 0 mm 3 mps 747 mmHg 59%
    23:00 +11°C° 0 mm 3 mps 747 mmHg 60%

    23 March, Saturday

    Time Temperature Precipitation Wind Pressure Humidity
    00:00 +11°C° 0 mm 3 mps 747 mmHg 62%
    01:00 +10°C° 0 mm 3 mps 747 mmHg 63%
    02:00 +10°C° 0 mm 3 mps 747 mmHg 63%
    03:00 +10°C° 0 mm 3 mps 747 mmHg 64%
    04:00 +10°C° 0 mm 3 mps 746 mmHg 64%
    05:00 +10°C° 0 mm 3 mps 746 mmHg 63%
    06:00 +10°C° 0 mm 3 mps 746 mmHg 63%
    07:00 +11°C° 0 mm 3 mps 746 mmHg 62%
    08:00 +13°C° 0 mm 3 mps 746 mmHg 55%
    09:00 +16°C° 0 mm 3 mps 746 mmHg 48%
    10:00 +18°C° 0 mm 3 mps 746 mmHg 41%
    11:00 +19°C° 0 mm 3 mps 746 mmHg 39%
    12:00 +20°C° 0 mm 2 mps 745 mmHg 36%
    13:00 +21°C° 0 mm 2 mps 745 mmHg 33%
    14:00 +20°C° 0 mm 2 mps 745 mmHg 34%
    15:00 +20°C° 0 mm 2 mps 745 mmHg 35%
    16:00 +20°C° 0 mm 2 mps 744 mmHg 36%
    17:00 +18°C° 0 mm 2 mps 745 mmHg 41%
    18:00 +17°C° 0 mm 2 mps 745 mmHg 46%
    19:00 +15°C° 0 mm 2 mps 745 mmHg 51%
    20:00 +14°C° 0 mm 2 mps 745 mmHg 52%
    21:00 +14°C° 0 mm 2 mps 746 mmHg 52%
    22:00 +12°C° 0 mm 3 mps 746 mmHg 53%
    23:00 +12°C° 0 mm 3 mps 746 mmHg 54%

    24 March, Sunday

    Time Temperature Precipitation Wind Pressure Humidity
    00:00 +12°C° 0 mm 3 mps 746 mmHg 55%
    01:00 +11°C° 0 mm 3 mps 746 mmHg 57%
    02:00 +11°C° 0 mm 3 mps 746 mmHg 58%
    03:00 +11°C° 0 mm 3 mps 745 mmHg 59%
    04:00 +11°C° 0 mm 3 mps 745 mmHg 60%
    05:00 +12°C° 0 mm 2 mps 745 mmHg 60%
    06:00 +13°C° 0 mm 2 mps 745 mmHg 61%
    07:00 +13°C° 0 mm 2 mps 745 mmHg 61%
    08:00 +15°C° 0 mm 2 mps 745 mmHg 54%
    09:00 +18°C° 0 mm 1 mps 745 mmHg 48%
    10:00 +20°C° 0 mm 1 mps 745 mmHg 41%
    11:00 +21°C° 0 mm 1 mps 744 mmHg 40%
    12:00 +22°C° 0 mm 1 mps 744 mmHg 38%
    13:00 +21°C° 0 mm 2 mps 744 mmHg 37%
    14:00 +21°C° 0 mm 2 mps 743 mmHg 39%
    15:00 +20°C° 0 mm 2 mps 743 mmHg 42%
    16:00 +20°C° 0 mm 2 mps 742 mmHg 45%
    17:00 +18°C° 0 mm 2 mps 742 mmHg 52%
    18:00 +18°C° 0 mm 1 mps 742 mmHg 58%
    19:00 +15°C° 0 mm 1 mps 742 mmHg 65%
    20:00 +15°C° 0 mm 1 mps 742 mmHg 64%
    21:00 +15°C° 0 mm 1 mps 743 mmHg 64%
    22:00 +14°C° 0 mm 1 mps 743 mmHg 64%
    23:00 +14°C° 0 mm 1 mps 742 mmHg 63%

    25 March, Monday

    Time Temperature Precipitation Wind Pressure Humidity
    00:00 +14°C° 0 mm 1 mps 742 mmHg 63%
    01:00 +13°C° 0 mm 1 mps 742 mmHg 63%
    02:00 +13°C° 0 mm 1 mps 742 mmHg 63%
    03:00 +13°C° 0 mm 1 mps 742 mmHg 62%
    04:00 +13°C° 0 mm 1 mps 741 mmHg 62%
    05:00 +13°C° 0 mm 1 mps 741 mmHg 62%
    06:00 +14°C° 0 mm 1 mps 741 mmHg 61%
    07:00 +14°C° 0 mm 1 mps 741 mmHg 61%
    08:00 +16°C° 0 mm 1 mps 741 mmHg 55%
    09:00 +19°C° 0 mm 1 mps 741 mmHg 49%
    10:00 +20°C° 0 mm 1 mps 741 mmHg 44%
    11:00 +21°C° 0 mm 1 mps 740 mmHg 44%
    12:00 +20°C° 0 mm 2 mps 740 mmHg 44%
    13:00 +20°C° 0 mm 2 mps 740 mmHg 45%
    14:00 +20°C° 0 mm 2 mps 739 mmHg 48%
    15:00 +19°C° 0 mm 2 mps 739 mmHg 52%
    16:00 +19°C° 0 mm 2 mps 738 mmHg 56%
    17:00 +17°C° 0 mm 2 mps 738 mmHg 65%
    18:00 +16°C° 0 mm 1 mps 738 mmHg 73%
    19:00 +14°C° 0 mm 1 mps 738 mmHg 82%
    20:00 +14°C° 0 mm 1 mps 738 mmHg 84%
    21:00 +13°C° 0 mm 1 mps 738 mmHg 87%
    22:00 +13°C° 0 mm 1 mps 738 mmHg 89%
    23:00 +12°C° 0 mm 1 mps 738 mmHg 90%
    Show more